TimeAEST,TemperatureF,Dew PointF,Humidity,Sea Level PressureIn,VisibilityMPH,Wind Direction,Wind SpeedMPH,Gust SpeedMPH,PrecipitationIn,Events,Conditions,WindDirDegrees,DateUTC
12:00 AM,33,32,93,30.40,,North,4.6,,,,,350,2013-06-22 14:00:00
12:00 AM,33.8,32.0,93,30.36,6.2,North,4.6,-,N/A,,Unknown,350,2013-06-22 14:00:00
12:30 AM,32.0,30.2,93,30.33,6.2,Calm,Calm,-,N/A,,Scattered Clouds,0,2013-06-22 14:30:00
1:00 AM,30,29,93,30.39,,Calm,Calm,,,,,,2013-06-22 15:00:00
1:00 AM,30.2,28.4,93,30.33,6.2,Calm,Calm,-,N/A,,Unknown,0,2013-06-22 15:00:00
1:30 AM,28.4,28.4,100,30.36,6.2,Calm,Calm,-,N/A,,Unknown,0,2013-06-22 15:30:00
2:00 AM,30.2,30.2,100,30.33,6.2,Calm,Calm,-,N/A,,Unknown,0,2013-06-22 16:00:00
2:30 AM,32.0,32.0,100,30.36,6.2,SSW,2.3,-,N/A,,Unknown,200,2013-06-22 16:30:00
3:00 AM,33,32,95,30.39,,South,2.3,,,,,180,2013-06-22 17:00:00
3:00 AM,32.0,32.0,100,30.33,6.2,South,2.3,-,N/A,,Unknown,180,2013-06-22 17:00:00
3:30 AM,32.0,30.2,93,30.33,6.2,SE,1.2,-,N/A,,Unknown,140,2013-06-22 17:30:00
4:00 AM,34,33,95,30.39,,ESE,1.2,,,,,110,2013-06-22 18:00:00
4:00 AM,33.8,33.8,100,30.36,6.2,ESE,1.2,-,N/A,,Unknown,110,2013-06-22 18:00:00
4:30 AM,32.0,32.0,100,30.36,6.2,SE,8.1,-,N/A,,Unknown,130,2013-06-22 18:30:00
5:00 AM,32.0,30.2,93,30.36,6.2,SE,6.9,-,N/A,,Unknown,140,2013-06-22 19:00:00
5:30 AM,30.2,28.4,93,30.36,6.2,SSE,2.3,-,N/A,,Unknown,160,2013-06-22 19:30:00
6:00 AM,30,29,97,30.41,,SSE,1.2,,,,,160,2013-06-22 20:00:00
6:00 AM,30.2,30.2,100,30.36,6.2,SSE,1.2,-,N/A,,Partly Cloudy,160,2013-06-22 20:00:00
6:30 AM,30.2,30.2,100,30.39,6.2,NNW,2.3,-,N/A,,Partly Cloudy,330,2013-06-22 20:30:00
7:00 AM,31,30,95,30.43,,Calm,Calm,,,,,,2013-06-22 21:00:00
7:00 AM,32.0,30.2,93,30.39,6.2,Calm,Calm,-,N/A,,Partly Cloudy,0,2013-06-22 21:00:00
7:30 AM,33.8,32.0,93,30.39,6.2,WSW,3.5,-,N/A,,Partly Cloudy,240,2013-06-22 21:30:00
8:00 AM,33.8,32.0,93,30.39,6.2,North,2.3,-,N/A,,Partly Cloudy,350,2013-06-22 22:00:00
8:30 AM,39.2,35.6,87,30.39,6.2,SE,6.9,-,N/A,,Scattered Clouds,140,2013-06-22 22:30:00
9:00 AM,41,35,71,30.45,,SSE,9.2,,,,,150,2013-06-22 23:00:00
9:00 AM,41.0,35.6,81,30.42,6.2,SSE,9.2,-,N/A,,Partly Cloudy,150,2013-06-22 23:00:00
9:30 AM,44.6,35.6,71,30.42,6.2,South,6.9,-,N/A,,Scattered Clouds,170,2013-06-22 23:30:00
10:00 AM,47,37,58,30.45,,SSE,11.5,,,,,160,2013-06-23 00:00:00
10:00 AM,48.2,37.4,66,30.42,6.2,SSE,11.5,-,N/A,,Scattered Clouds,160,2013-06-23 00:00:00
10:30 AM,48.2,35.6,62,30.39,6.2,SSE,13.8,-,N/A,,Scattered Clouds,150,2013-06-23 00:30:00
11:00 AM,51.8,37.4,58,30.39,6.2,SSE,15.0,-,N/A,,Scattered Clouds,160,2013-06-23 01:00:00
11:30 AM,50.0,37.4,62,30.39,6.2,South,12.7,-,N/A,,Scattered Clouds,170,2013-06-23 01:30:00
12:00 PM,50,37,51,30.42,,South,12.7,,,,,170,2013-06-23 02:00:00
12:00 PM,50.0,37.4,62,30.36,6.2,South,12.7,-,N/A,,Scattered Clouds,170,2013-06-23 02:00:00
12:30 PM,50.0,37.4,62,30.36,6.2,South,10.4,-,N/A,,Scattered Clouds,170,2013-06-23 02:30:00
1:00 PM,51,39,54,30.40,,South,8.1,,,,,180,2013-06-23 03:00:00
1:00 PM,51.8,39.2,62,30.36,6.2,South,8.1,-,N/A,,Mostly Cloudy,180,2013-06-23 03:00:00
1:30 PM,51.8,39.2,62,30.36,6.2,ESE,12.7,-,N/A,,Mostly Cloudy,110,2013-06-23 03:30:00
2:00 PM,51.8,39.2,62,30.33,6.2,ESE,11.5,-,N/A,,Mostly Cloudy,120,2013-06-23 04:00:00
2:30 PM,51.8,39.2,62,30.33,6.2,SE,9.2,-,N/A,,Mostly Cloudy,140,2013-06-23 04:30:00
3:00 PM,51,40,55,30.38,,SSE,11.5,,,,,150,2013-06-23 05:00:00
3:00 PM,51.8,39.2,62,30.33,6.2,SSE,11.5,-,N/A,,Mostly Cloudy,150,2013-06-23 05:00:00
3:30 PM,50.0,41.0,71,30.33,6.2,SE,10.4,-,N/A,,Mostly Cloudy,130,2013-06-23 05:30:00
4:00 PM,50,41,62,30.38,,ESE,9.2,,,,,110,2013-06-23 06:00:00
4:00 PM,50.0,41.0,71,30.33,6.2,ESE,9.2,-,N/A,,Mostly Cloudy,110,2013-06-23 06:00:00
4:30 PM,50.0,41.0,71,30.33,6.2,ESE,10.4,-,N/A,,Mostly Cloudy,110,2013-06-23 06:30:00
5:00 PM,48.2,41.0,76,30.33,6.2,ESE,10.4,-,N/A,,Mostly Cloudy,110,2013-06-23 07:00:00
5:27 PM,46.4,42.8,87,30.33,6.2,ESE,12.7,-,N/A,Rain,Light Rain Showers,120,2013-06-23 07:27:00
6:00 PM,47,42,76,30.39,,ESE,8.1,,,,,120,2013-06-23 08:00:00
6:00 PM,46.4,42.8,87,30.33,6.2,ESE,8.1,-,N/A,,Mostly Cloudy,120,2013-06-23 08:00:00
6:39 PM,46.4,41.0,81,30.36,6.2,South,4.6,-,N/A,,Mostly Cloudy,170,2013-06-23 08:39:00
7:00 PM,47,40,70,30.39,,SSE,10.4,,,,,150,2013-06-23 09:00:00
7:00 PM,46.4,41.0,81,30.36,6.2,SSE,10.4,-,N/A,,Scattered Clouds,150,2013-06-23 09:00:00
7:09 PM,46.4,41.0,81,30.36,6.2,SE,10.4,-,N/A,,Scattered Clouds,140,2013-06-23 09:09:00
7:30 PM,46.4,41.0,81,30.33,6.2,SE,10.4,-,N/A,,Scattered Clouds,140,2013-06-23 09:30:00
8:00 PM,46.4,39.2,76,30.36,6.2,SE,9.2,-,N/A,,Scattered Clouds,140,2013-06-23 10:00:00
8:30 PM,46.4,41.0,81,30.36,6.2,SE,8.1,-,N/A,,Scattered Clouds,140,2013-06-23 10:30:00
9:00 PM,46,40,72,30.38,,SSE,8.1,,,,,150,2013-06-23 11:00:00
9:00 PM,46.4,39.2,76,30.33,6.2,SSE,8.1,-,N/A,,Unknown,150,2013-06-23 11:00:00
9:30 PM,46.4,39.2,76,30.33,6.2,SSE,8.1,-,N/A,,Mostly Cloudy,150,2013-06-23 11:30:00
10:00 PM,46,39,69,30.38,,SE,8.1,,,,,140,2013-06-23 12:00:00
10:00 PM,46.4,39.2,76,30.33,6.2,SE,8.1,-,N/A,,Mostly Cloudy,140,2013-06-23 12:00:00
10:30 PM,46.4,39.2,76,30.33,6.2,SSE,6.9,-,N/A,,Mostly Cloudy,150,2013-06-23 12:30:00
11:00 PM,46.4,39.2,76,30.33,6.2,SE,6.9,-,N/A,,Mostly Cloudy,140,2013-06-23 13:00:00
11:30 PM,46.4,39.2,76,30.33,6.2,SSE,6.9,-,N/A,,Scattered Clouds,150,2013-06-23 13:30:00